Regional Weather Roundup
Issued by NWS

Home | Current Version | Previous Version | Graphics & Text | Print | Product List | Glossary On
Versions: 1 2 3 4 5 6 7 8 9 10 11 12 13 14 15 16 17 18 19 20 21 22 23 24 25 26 27 28 29 30 31 32 33 34 35 36 37 38 39 40 41 42 43 44 45 46 47 48 49 50
000
ASUS43 KOAX 301002
RWRNE

WEATHER ROUNDUP FOR NEBRASKA
NATIONAL WEATHER SERVICE OMAHA NE
500 AM CDT SAT JUL 30 2016

NOTES: SATELLITE DATA IS BEING USED TO AUGMENT CLOUD COVER ABOVE
       12000 FEET.
       "FAIR" INDICATES FEW OR NO CLOUDS BELOW 12,000 FEET WITH NO
       SIGNIFICANT WEATHER AND/OR OBSTRUCTIONS TO VISIBILITY.

  * THESE STATIONS DO NOT REPORT WEATHER SUCH AS RAIN...SNOW OR FOG.

NEZ001>004-019>022-054>056-301100-
NEBRASKA PANHANDLE

CITY           SKY/WX    TMP DP  RH WIND       PRES   REMARKS
SCOTTSBLUFF    CLOUDY    61  57  87 N6        30.02F
ALLIANCE       MOCLDY    56  55  97 CALM      30.03S
CHADRON        CLEAR     58  55  90 S5        29.99F
KIMBALL        CLOUDY    63  62  95 SW5       30.08F
SIDNEY         CLOUDY    64  61  90 SW5       30.05F
$$

NEZ057>060-069>072-079>082-301100-
SOUTHWEST NEBRASKA

CITY           SKY/WX    TMP DP  RH WIND       PRES   REMARKS
NORTH PLATTE   CLEAR     63  61  93 E5        30.02F
IMPERIAL       CLEAR     63  60  90 SE7       30.01F
LEXINGTON      CLEAR     65  62  88 SE6       30.02S
MCCOOK         CLEAR     65  63  93 SE8       30.00F
OGALLALA       CLOUDY    66  62  89 S3        30.02F
$$

NEZ005>010-023>029-035>040-094-301100-
NORTH CENTRAL NEBRASKA

CITY           SKY/WX    TMP DP  RH WIND       PRES   REMARKS
VALENTINE      CLOUDY    65  60  84 E10       30.01F
AINSWORTH      CLOUDY    64  63  95 SE12      30.02S
BROKEN BOW     MOCLDY    64  63  96 SE7       30.02F
O`NEILL        CLOUDY    63  60  89 S3        30.04S
ORD            RAIN      63  60  90 NE5       30.02S FOG
THEDFORD       CLEAR     63  62  96 SE3       30.02F
$$

NEZ041-046>049-061>064-073>077-083>087-301100-
SOUTH CENTRAL NEBRASKA

CITY           SKY/WX    TMP DP  RH WIND       PRES   REMARKS
GRAND ISLAND   PTCLDY    63  59  87 SE5       30.04R
AURORA         CLEAR     60  60  98 SE3       30.04R
HASTINGS       MOCLDY    66  60  81 SE8       30.04S
HEBRON         PTCLDY    61  60  96 CALM      30.03S
HOLDREGE       CLEAR     64  61  91 SE6       30.02S
KEARNEY *      MOCLDY    64  63  94 SE8       30.02F
YORK           CLEAR     63  61  94 SE6       30.03F
$$

NEZ011>018-030>034-042>045-301100-
NORTHEAST NEBRASKA

CITY           SKY/WX    TMP DP  RH WIND       PRES   REMARKS
NORFOLK        CLEAR     58  56  93 CALM      30.03S
ALBION         CLEAR     59  56  92 CALM      30.04S
BLAIR          CLEAR     63  60  92 CALM      30.03S
FREMONT        CLEAR     61  60  95 CALM      30.03S
TEKAMAH        MOCLDY    58  55  90 CALM      30.02F
WAYNE          PTCLDY    55  54  98 CALM      30.03F
$$

NEZ050>053-065>068-078-088>093-301100-
SOUTHEAST NEBRASKA

CITY           SKY/WX    TMP DP  RH WIND       PRES   REMARKS
LINCOLN        CLEAR     63  61  93 CALM      30.03F
OMAHA EPPLEY   PTCLDY    62  59  90 N3        30.02S
BEATRICE       CLEAR     61  59  94 CALM      30.03S
FALLS CITY     CLEAR     61  61 100 CALM      30.01S
NEBRASKA CITY    N/A     62  62 100 CALM      30.02S
PLATTSMOUTH    CLEAR     60  60  99 CALM      30.03S
$$

NEZ044-045-051>053-067-301100-
OMAHA AREA

CITY           SKY/WX    TMP DP  RH WIND       PRES   REMARKS
OMAHA EPPLEY   PTCLDY    62  59  90 N3        30.02S
BLAIR          CLEAR     63  60  92 CALM      30.03S
FREMONT        CLEAR     61  60  95 CALM      30.03S
MILLARD        CLEAR     63  61  95 CALM      30.02S
OFFUTT AFB     CLEAR     59  59 100 NE2       30.02S
PLATTSMOUTH    CLEAR     60  60  99 CALM      30.03S
WAHOO          FAIR      60  58  95 CALM      30.02F
$$




USA.gov is the U.S. government's official web portal to all federal, state and local government web resources and services.